Hourly Data Report for October 03, 2017

All times are specified in Local Standard Time (LST). Add 1 hour to adjust for Daylight Saving Time where and when it is observed.

FLIN FLON
MANITOBA

54°41'00.000" N
101°41'00.000" W
303.90 m
5050919
71954
WFO

Download Data

Hourly Data (October 2017)
Hourly Data Report for October 3, 2017
Temp Definition
°C
Dew Point Temp Definition
°C
Rel Hum Definition
%
Wind Dir Definition
10's deg

Wind Spd Definition
km/h
Visibility Definition
km
Stn Press Definition
kPa
Hmdx Definition


Wind Chill Definition


Weather Definition


TIME
00:00 3.9 1.3 83 2 32   97.96     LegendNANA
01:00 4.2 0.9 79 2 21   98.03     LegendNANA
02:00 3.6 0.1 78 2 22   98.12     LegendNANA
03:00 3.7 -0.4 75 2 26   98.19     LegendNANA
04:00 2.7 -1.0 76 2 24   98.30     LegendNANA
05:00 1.8 -1.1 81 1 21   98.40     LegendNANA
06:00 1.5 -1.1 83 1 20   98.50     LegendNANA
07:00 1.7 -1.0 82 2 20   98.60     LegendNANA
08:00 2.1 -0.9 81 2 18   98.65     LegendNANA
09:00 3.0 -0.6 77 4 14   98.69     LegendNANA
10:00 3.9 -1.2 69 5 13   98.67     LegendNANA
11:00 5.4 -2.2 58 3 12   98.66     LegendNANA
12:00 6.2 -3.9 48 3 8   98.64     LegendNANA
13:00 7.3 -3.7 45 5 8   98.60     LegendNANA
14:00 8.3 -4.7 39 7 4   98.58     LegendNANA
15:00 8.7 -5.4 36 0 1   98.56     LegendNANA
16:00 9.3 -5.5 35 20 5   98.55     LegendNANA
17:00 9.2 -4.6 37   0   98.50     LegendNANA
18:00 7.0 -2.6 51   0   98.48     LegendNANA
19:00 4.7 -2.4 60   0   98.43     LegendNANA
20:00 3.3 -1.6 70 21 10   98.34     LegendNANA
21:00 5.6 -0.2 66 23 12   98.27     LegendNANA
22:00 5.8 -0.5 64 22 15   98.25     LegendNANA
23:00 6.2 0.0 64 21 19   98.10     LegendNANA

Notes on Data Quality.

Legend

  • E = Estimated
  • M = Missing
  • NA = Not Available
  • ‡ = Partner data that is not subject to review by the National Climate Archives
Date modified: